NOAA 16 DEB

Satellite information

Favourite Embed

Satellite Type and Status

DEBRISIN ORBIT

Key statistics

Satellite NOAA 16 DEB at a glance.

Uptime

9156

Days in orbit

Revolutions

≈ 14.3

Per day

Orbit

SSO

Sun Synchronous Orbit

Inclination

98.8

Latest

Satellite identification and parameters

Extended collection of information and parameters for NOAA 16 DEB.

Object identification

Identified? True

Debris? True

Object name: NOAA 16 DEB

International designator: 2000-055AE

Object number (NORAD): 41071

Object ID (CCSDS): 41071

Country: UNITED STATES OF AMERICA (US)

Current information (Y/N): Y

RCS size: SMALL

Orbital parameters

Period: 100.859 minutes

Inclination: 98.816 deg

SMA: 7177.447 km

Apoapsis: 805.382 km

Periapsis: 793.242 km

RAAN: 29.5864 deg

Eccentricy: 0.00084573

Argument of periapsis: 345.6186 deg

Mean anomaly: 14.4753 deg

Mean motion: 14.27735514 rev/day

Mean motion (dot): 0.00005304 rev/day2

B* drag term: 0.0021652338 1/REarth

Two-line elements (TLE)

Creation date: Oct. 16, 2025, 2:37 a.m.

Reference frame: TEME

Reference center: EARTH

Epoch: Oct. 15, 2025, 9:46 p.m. UTC

TLE line 0: 0 NOAA 16 DEB

TLE line 1: 1 41071U 00055AE 25288.90738679 .00005304 00000-0 21652-2 0 9997

TLE line 2: 2 41071 98.8160 29.5864 0008457 345.6186 14.4753 14.27735514510995

Live tracking on map

Real-time ground track for satellite NOAA 16 DEB.

In-orbit conjunctions

A list of the most updated potential collisions computed for object NOAA 16 DEB.

Target Orbit TCA Probability of collision Miss distance Type
BPA 1/SL-24 R/B SSO 2025-08-16 12:43:40 0.0001632359 40.0 (m) ROCKET BODY
FENGYUN 1C DEB SSO 2024-11-12 01:06:25 0.0001335563 813.0 (m) DEBRIS
CZ-6A DEB SSO 2024-11-07 18:13:44 0.0005234841 698.0 (m) DEBRIS
CZ-6A DEB LEO 2024-10-03 10:08:14 0.000252817 373.0 (m) DEBRIS
COSMOS 1275 DEB LEO 2024-09-27 14:56:14 0.000132028 102.0 (m) DEBRIS

Associated space launch

The NOAA K, L and M POES satellites begin the fifth generation of improved environmental monitoring in support of NOAA missions. The instrument payload has significant improvements and additions/deletions. The instrument changes have effected the spacecraft subsystems and data formats.

NOAA 16 DEB was lifted into orbit during the mission ‘Titan II SLV | NOAA 16’, on board a Titan II SLV space rocket.

The launch took place on Sept. 21, 2000, 10:22 a.m. from Space Launch Complex 4W.

For more information about the launch, click the button.

Launch to space Titan II SLV | NOAA 16
Titan II SLV | NOAA 16

Agency: N/A

Status: Launch Successful

Launch date: Sept. 21, 2000, 10:22 a.m. UTC

Rocket: Titan II SLV

Launch pad: Space Launch Complex 4W

Location: Vandenberg SFB, CA, USA

...

Latest news about this satellite

There are no fresh news available about this satellite. Check back as we update our databases every day.


Newsletter sign-up

Weekly statistics, charts and insights to help you stay on top of the space industry.